{"data":{"norad_id":47401,"epoch":"2026-09-20T03:40:35.475168Z","epoch_age_seconds":55639,"freshness":"FRESH","line1":"1 47401U 21005BE  26263.15318837  .00000696  00000+0  34175-4 0  9993","line2":"2 47401  53.1615 211.9634 0001293  96.0279 264.0870 15.31716769313182","mean_motion":15.31716769,"eccentricity":0.0001293,"inclination_deg":53.1615,"raan_deg":211.9634,"arg_perigee_deg":96.0279,"mean_anomaly_deg":264.087,"bstar":3.4175e-5,"rev_number":31318,"period_min":94.012158719142,"perigee_km":469.80445483313,"apogee_km":471.57556149744,"semimajor_km":6848.8270081653,"source":"CELESTRAK","updated_at":"2026-09-20T09:00:38.595539Z"}}